Home > Weather > Barranquilla > Past weeks

Flag for Colombia Past Weather in Barranquilla, Colombia — Yesterday and Last 2 Weeks

Now
93 °F

Scattered clouds.


Feels Like: 105 °F
Forecast: 83 / 91 °F
Wind: 12 mph from North

Location: Barranquilla / Ernestocortissoz

Current Time: Jul 27, 2016 at 2:26:45 PM

Latest Report: Jul 27, 2016 at 2:00 PM


Visibility: N/A

Pressure: 29.75 "Hg

Humidity: 56%

Dew Point: 75 °F

Location of BarranquillaLocation

Past Weather in Barranquilla — Graph

°F

Barranquilla Temperature Yesterday

Maximum temperature yesterday: 93 °F (at 11:00 AM)
Minimum temperature yesterday: 77 °F (at 3:00 AM)
Average temperature yesterday: 84 °F

High & Low Weather Summary for the Past Weeks

 TemperatureHumidityPressure
High97 °F (Jul 27, 1:00 PM)100% (Jul 15, 7:00 AM)29.94 "Hg (Jul 15, 7:00 AM)
Low73 °F (Jul 15, 6:00 PM)47% (Jul 27, 1:00 PM)29.75 "Hg (Jul 26, 4:00 PM)
Average84 °F80%29.85 "Hg
* Reported Jul 12 1:00 PM — Jul 27 1:00 PM, Barranquilla, Weather by CustomWeather, © 2016

Note: Actual official high and low records may vary slightly from our data, if they occured in-between our weather recording intervals... More about our weather records

Advertising

Barranquilla Weather History for the Previous 24 Hours

Scroll right to see more
 ConditionsComfort  
Time TempWeatherWind HumidityBarometerVisibility
1:00 PM
Wed, Jul 27
97 °FPassing clouds.6 mph47%29.77 "HgN/A
12:00 PM95 °FPassing clouds.6 mph53%29.79 "HgN/A
11:00 AM91 °FPassing clouds.2 mph59%29.80 "HgN/A
10:00 AM90 °FPassing clouds.8 mph63%29.80 "HgN/A
9:00 AM88 °FPassing clouds.13 mph70%29.80 "HgN/A
8:00 AM84 °FPassing clouds.9 mph79%29.78 "HgN/A
7:00 AM82 °FPassing clouds.6 mph79%29.78 "HgN/A
6:00 AM81 °FPassing clouds.7 mph84%29.77 "HgN/A
5:00 AM81 °FPassing clouds.9 mph79%29.76 "HgN/A
4:00 AM82 °FPassing clouds.8 mph74%29.76 "HgN/A
3:00 AM81 °FPassing clouds.13 mph84%29.75 "HgN/A
2:00 AM82 °FPassing clouds.8 mph79%29.77 "HgN/A
1:00 AM82 °FPassing clouds.7 mph84%29.78 "HgN/A
12:00 AM82 °FPassing clouds.8 mph84%29.79 "HgN/A
11:00 PM
Tue, Jul 26
82 °FPassing clouds.9 mph84%29.80 "HgN/A
10:00 PM82 °FPassing clouds.7 mph79%29.81 "HgN/A
9:00 PM82 °FPassing clouds.10 mph79%29.78 "HgN/A
8:00 PM84 °FPassing clouds.14 mph74%29.78 "HgN/A
7:00 PM84 °FPassing clouds.13 mph74%29.77 "HgN/A
6:00 PM86 °FPassing clouds.14 mph70%29.76 "HgN/A
5:00 PM90 °FScattered clouds.12 mph63%29.75 "HgN/A
4:00 PM90 °FScattered clouds.15 mph63%29.75 "HgN/A
3:00 PM91 °FPassing clouds.14 mph59%29.76 "HgN/A
2:00 PM91 °FPassing clouds.12 mph59%29.77 "HgN/A
Weather by CustomWeather, © 2016

See weather overviewHow to use our weather pages